Location: Springfield
(37.2150°N, 93.2980°W)
Time: 15:48:11
(UTC-05:00)

Cosmos 2278 Rocket - Pass Details

Date: 19 April 2018
Orbit: 842 x 844 km, 71.0° (Epoch: 18 September)

Event Time Altitude Azimuth Distance (km) Brightness Sun altitude
Rises 23:17:16 0° 321° (NW) 3,403 6.4 -34.3°
Reaches altitude 10° 23:20:20 10° 305° (NW) 2,464 5.3 -34.7°
Enters shadow 23:24:00 20° 264° (W) 1,861 4.2 -35.1°
